Flag for Germany Weather past 2 weeks in Vreden, North Rhine-Westphalia, Germany

Now
72 °F

Fog.


Feels Like: 72 °F
Forecast: 58 / 74 °F
Wind: 3 mph from Northeast

Location: Twenthe

Current Time: Jul 29, 2014 at 10:55:18 AM

Latest Report: Jul 29, 2014 at 10:00 AM


Visibility: 6 mi

Pressure: 29.87 "Hg

Humidity: 82%

Dew point: 67 °F

Location of VredenLocation

Historic Weather in Vreden — Graph

°F

Vreden temperature yesterday

Maximum temperature yesterday: 80 °F (at 3:00 PM)
Minimum temperature yesterday: 62 °F (at 4:00 AM)
Average temperature yesterday: 69 °F

Past Weeks' High & Low Weather Summary

 TemperatureHumidityPressure
High92 °F (Jul 19, 4:00 PM)100% (Jul 16, 4:00 AM)30.20 "Hg (Jul 16, 4:00 AM)
Low52 °F (Jul 16, 5:00 AM)28% (Jul 19, 4:00 PM)29.75 "Hg (Jul 20, 5:00 AM)
Average69 °F77%29.99 "Hg
* Reported Jul 14 9:00 AM — Jul 29 9:00 AM, Vreden, Weather by CustomWeather, © 2014

Note: Actual official high and low records may vary slightly from our data, if they occured in-between our weather recording intervals... More about our weather records

Advertising

Vreden weather history for previous 24 hours

 ConditionsComfort  
Time TempWeatherWind HumidityBarometerVisibility
9:00 AM
Jul 29
70 °FFog.3 mph88%29.86 "Hg4 mi
8:00 AM67 °FFog.5 mph95%29.86 "Hg3 mi
7:00 AM65 °FFog.3 mph98%29.86 "Hg1 mi
6:00 AM64 °FFog.2 mph99%29.85 "Hg1 mi
5:00 AM65 °FFog.2 mph98%29.85 "Hg2 mi
4:00 AM65 °FFog.2 mph98%29.86 "Hg2 mi
3:00 AM65 °FFog.2 mph99%29.86 "Hg1 mi
2:00 AM64 °FPassing clouds.1 mph100%29.86 "Hg1 mi
1:00 AM65 °FRain. Passing clouds.1 mph98%29.88 "Hg2 mi
12:00 AM65 °FLight rain. Passing clouds.3 mph97%29.88 "Hg4 mi
11:00 PM
Jul 28
67 °FRain. Passing clouds.3 mph93%29.89 "Hg4 mi
10:00 PM66 °FRain. Overcast.2 mph95%29.90 "Hg4 mi
9:00 PM67 °FRain. Overcast.1 mph94%29.87 "Hg6 mi
8:00 PM67 °FRain. Overcast.2 mph91%29.88 "Hg11 mi
7:00 PM67 °FRain showers. Overcast.2 mph83%29.88 "Hg28 mi
6:00 PM67 °FLight rain. Overcast.5 mph80%29.88 "Hg28 mi
5:00 PM77 °FScattered clouds.5 mph63%29.84 "Hg16 mi
4:00 PM79 °FPartly sunny.6 mph57%29.84 "Hg17 mi
3:00 PM80 °FPassing clouds.7 mph58%29.85 "Hg13 mi
2:00 PM78 °FPassing clouds.7 mph59%29.86 "Hg16 mi
1:00 PM76 °FPassing clouds.8 mph61%29.88 "Hg14 mi
12:00 PM75 °FPassing clouds.6 mph66%29.90 "Hg11 mi
11:00 AM73 °FPassing clouds.6 mph70%29.91 "Hg7 mi
10:00 AM70 °FFog.6 mph80%29.92 "Hg5 mi
Weather by CustomWeather, © 2014

See weather overviewHow to use our weather pages